Skip Page Navigation
NASA JPL Caltech
NASA Logo - Jet Propulsion Laboratory + View the NASA Portal
+ Center for Near-Earth Object Studies
JPL Home Earth Solar System Stars & Galaxies Technology
JPL Solar System Dynamics
BODIES ORBITS EPHEMERIDES TOOLS PHYSICAL DATA DISCOVERY FAQ SITE MAP
JPL Small-Body Database Browser
Search: [ help ]  
35285 (1996 TR5)
Classification: Main-belt Asteroid          SPK-ID: 2035285
Ephemeris | Orbit Diagram | Orbital Elements | Mission Design | Physical Parameters | Discovery Circumstances ]

[ show orbit diagram ]
Orbital Elements at Epoch 2459000.5 (2020-May-31.0) TDB
Reference: JPL 23 (heliocentric ecliptic J2000)
 Element Value Uncertainty (1-sigma)   Units 
e .2286177447737709 5.6967e-08  
a 2.360365808938437 1.1492e-08 au
q 1.820744300857814 1.3481e-07 au
i 25.26208730066647 6.7375e-06 deg
node 344.0688871240329 8.4919e-06 deg
peri 4.816713402296094 1.1635e-05 deg
M 204.7810760962394 1.0188e-05 deg
tp 2459571.596589872102
(2021-Dec-23.09658987)
4.0185e-05 TDB
period 1324.547079590826
3.63
9.673e-06
2.648e-08
d
yr
n .271791018641036 1.9849e-09 deg/d
Q 2.89998731701906 1.4119e-08 au
  Orbit Determination Parameters
   # obs. used (total)      997  
   data-arc span      16686 days (45.68 yr)  
   first obs. used      1974-08-20  
   last obs. used      2020-04-26  
   planetary ephem.      DE431  
   SB-pert. ephem.      SB431-N16  
   condition code      0  
   norm. resid. RMS      .52618  
   source      ORB  
   producer      Otto Matic  
   solution date      2020-May-20 08:04:20  

Additional Information
 Earth MOID = .814503 au 
 Jupiter MOID = 2.52844 au 
 T_jup = 3.390 
[ show covariance matrix ]

Ephemeris | Orbit Diagram | Orbital Elements | Mission Design | Physical Parameters | Discovery Circumstances ]

Physical Parameter Table
Parameter Symbol Value Units Sigma Reference Notes
absolute magnitude H 14.5   n/a MPO468170  
diameter diameter 3.612 km 0.720 urn:nasa:pds:neowise_diameters_albedos::2.0[mainbelt] (http://adsabs.harvard.edu/abs/2015ApJ...814..117N)  
geometric albedo albedo 0.244   0.116 urn:nasa:pds:neowise_diameters_albedos::2.0[mainbelt] (http://adsabs.harvard.edu/abs/2015ApJ...814..117N)  

35285 (1996 TR5)          Discovered 1996-Oct-06 by Hergenrother, C. W. at Catalina Station
Reference: 20020227/Numbers.arcLast Updated: 2004-04-19

Alternate Designations
 1996 TR5 = 1985 RR1 
Ephemeris | Orbit Diagram | Orbital Elements | Mission Design | Physical Parameters | Discovery Circumstances ]
ABOUT SSD CREDITS/AWARDS PRIVACY/COPYRIGHT GLOSSARY LINKS
FirstGov 2020-Oct-29 02:32 UT
(server date/time)  
NASA Home Page
Site Manager:   Ryan S. Park
Webmaster  Alan B. Chamberlin